Location: Easthampton
(42.2676°N, 72.6690°W)
Time: 06:08:55
(UTC+00:00)

CAS-6 - Pass Details

Date: 29 March 2023
Orbit: 610 x 632 km, 97.9° (Epoch: 06 June)

Event Time Altitude Azimuth Distance (km) Brightness Sun altitude
Exits shadow 02:54:25 12° 357° (N) 1,879 ? -36.9°
Drops below altitude 10° 02:54:42 10° 356° (N) 1,996 ? -36.9°
Sets 02:56:56 0° 352° (N) 2,911 ? -37.1°
